TimeEDT,TemperatureF,Dew PointF,Humidity,Sea Level PressureIn,VisibilityMPH,Wind Direction,Wind SpeedMPH,Gust SpeedMPH,PrecipitationIn,Events,Conditions,WindDirDegrees,DateUTC
12:53 AM,75.9,71.1,85,30.14,10.0,SW,6.9,-,N/A,,Clear,230,2013-07-06 04:53:00
1:53 AM,75.9,71.1,85,30.14,10.0,SW,6.9,-,N/A,,Clear,230,2013-07-06 05:53:00
2:53 AM,75.0,71.1,87,30.14,10.0,WSW,5.8,-,N/A,,Clear,240,2013-07-06 06:53:00
3:53 AM,75.0,71.1,87,30.14,10.0,SW,5.8,-,N/A,,Clear,230,2013-07-06 07:53:00
4:53 AM,73.9,71.1,91,30.14,10.0,SW,5.8,-,N/A,,Clear,220,2013-07-06 08:53:00
5:53 AM,73.0,71.1,93,30.14,10.0,SW,6.9,-,N/A,,Clear,220,2013-07-06 09:53:00
6:53 AM,75.0,72.0,90,30.14,10.0,SW,5.8,-,N/A,,Clear,230,2013-07-06 10:53:00
7:53 AM,79.0,73.0,82,30.14,10.0,SW,6.9,-,N/A,,Clear,230,2013-07-06 11:53:00
8:53 AM,81.0,73.0,77,30.14,10.0,WNW,6.9,-,N/A,,Clear,290,2013-07-06 12:53:00
9:53 AM,84.0,73.9,72,30.12,10.0,West,8.1,-,N/A,,Clear,270,2013-07-06 13:53:00
10:53 AM,86.0,72.0,63,30.11,10.0,West,8.1,-,N/A,,Scattered Clouds,280,2013-07-06 14:53:00
11:53 AM,87.1,75.0,67,30.10,10.0,SSW,12.7,-,N/A,,Scattered Clouds,200,2013-07-06 15:53:00
12:53 PM,89.1,73.0,59,30.09,10.0,SW,11.5,16.1,N/A,,Partly Cloudy,220,2013-07-06 16:53:00
1:53 PM,90.0,73.0,57,30.08,10.0,SSW,18.4,23.0,N/A,,Partly Cloudy,210,2013-07-06 17:53:00
2:53 PM,90.0,71.1,54,30.07,10.0,SW,19.6,-,N/A,,Partly Cloudy,220,2013-07-06 18:53:00
3:53 PM,88.0,72.0,59,30.06,10.0,SW,17.3,-,N/A,,Mostly Cloudy,220,2013-07-06 19:53:00
4:53 PM,89.1,71.1,55,30.05,10.0,SW,12.7,-,N/A,,Partly Cloudy,220,2013-07-06 20:53:00
5:53 PM,88.0,71.1,57,30.04,10.0,SW,9.2,-,N/A,,Partly Cloudy,220,2013-07-06 21:53:00
6:53 PM,84.9,71.1,63,30.04,10.0,SW,9.2,-,N/A,,Clear,230,2013-07-06 22:53:00
7:53 PM,82.9,70.0,65,30.03,10.0,SW,6.9,-,N/A,,Clear,220,2013-07-06 23:53:00
8:53 PM,82.0,70.0,67,30.04,10.0,SW,4.6,-,N/A,,Clear,230,2013-07-07 00:53:00
9:53 PM,81.0,70.0,69,30.05,10.0,SW,3.5,-,N/A,,Clear,220,2013-07-07 01:53:00
10:53 PM,80.1,71.1,74,30.06,10.0,SW,3.5,-,N/A,,Clear,220,2013-07-07 02:53:00
11:53 PM,80.1,71.1,74,30.06,10.0,WSW,5.8,-,N/A,,Clear,240,2013-07-07 03:53:00